Torna al catalogo

STARLINK-30449

AttivoComunicazioniVLEO
NORAD 57903·PAYLOAD·🇺🇸 United States

Lanciato Sep 20, 2023 da Cape Canaveral Space Force Station

Loading…

Prossimi Passaggi (prossime 24 ore)

TLE

AggiornatoSource: CelesTrak SupGP

Epoca: Sep 14, 2026, 21:34 UTC

1 57903C 23146N   26257.89909722 -.00022573  00000+0 -81760-3 0  2570
2 57903  43.0019 325.4805 0001292 269.0670 149.5722 15.27589386    19

Traccia STARLINK-30449 in tempo reale con AllMySat

Download on the App Store